User: anonymous   Login
Location: Unspecified
(0.0000°N, 0.0000°E)
Time: 10:50:02
(UTC+00:00)
Language:

NOSS 2-3 (C) - Orbit

View from above orbital plane
View from above orbital plane
View from above satellite
View from above satellite

Ground track
Ground track

The orbit data is extracted from the following two-line orbital elements,

1 23908U 96029C   18315.77148781 0.00000050  00000-0  25114-4 0    04
2 23908  63.3730 175.7773 0653000  16.1514 343.8486 13.40885910    00
Epoch (UTC): 11 November 2018 18:30:56
Eccentricity: 0.0653000
inclination: 63.3730°
perigee height: 617 km
apogee height: 1594 km
right ascension of ascending node: 175.7773°
argument of perigee: 16.1514°
revolutions per day: 13.40885910
mean anomaly at epoch: 343.8486°
orbit number at epoch: 0

The dashed part of the orbit path shows where the satellite is in the earth's shadow,  

DLR